Theta_e
311 311 311 311 310 309 308 308 308 306 306 305 305 305 304 305 305 305 306 306 307 307 308 308 308 312 317 317 317 316 320 324 320 319 320 321 323 327 326 328 324 324 330 329 342 350 350
310 310 311 311 310 309 309 309 308 306 305 304 304 305 305 306 306 306 306 307 308 308 308 308 308 313 319 319 317 320 327 325 324 320 319 320 323 325 327 325 324 332 340 344 348 352 352
310 310 310 310 310 309 309 309 309 307 304 303 303 304 305 306 307 307 307 308 309 309 308 310 311 315 319 320 317 318 321 321 321 318 319 319 321 326 325 326 327 338 346 348 350 351 353
309 309 309 309 309 307 308 308 308 305 303 303 303 303 303 306 307 307 308 308 309 309 313 312 314 319 319 318 316 318 319 319 318 318 319 318 319 322 326 325 332 340 342 345 347 349 351
308 308 308 308 306 305 305 306 305 304 303 303 303 303 302 303 305 307 309 308 312 314 314 315 321 321 321 321 322 322 320 318 317 317 317 319 320 322 323 328 340 339 343 344 347 348 351
309 308 308 308 306 305 304 303 303 303 302 302 302 303 303 303 304 306 309 309 318 318 318 321 325 323 321 324 324 323 321 317 317 318 318 320 322 324 325 330 338 343 343 343 347 347 349
309 309 309 308 307 306 305 304 303 302 302 302 302 303 303 303 303 305 307 309 314 316 317 325 323 321 320 322 322 324 321 318 317 318 319 320 323 323 325 327 330 341 342 344 344 344 348
308 308 308 308 308 308 306 305 304 303 302 302 302 302 302 302 303 308 307 310 307 306 311 312 312 318 319 319 322 323 321 325 319 318 319 321 321 323 325 326 331 338 343 344 336 341 347
307 307 307 307 307 308 307 306 305 303 302 302 302 302 302 303 304 305 307 308 306 306 312 315 314 315 316 319 322 323 323 321 320 319 320 320 321 322 325 327 331 334 342 340 341 334 343
306 306 306 306 306 305 305 306 306 303 302 302 302 302 302 301 304 303 308 306 305 306 319 320 319 319 321 322 323 323 324 323 319 320 319 321 320 323 325 327 328 333 329 331 330 332 332
306 305 305 306 305 304 304 304 306 303 302 302 302 302 302 302 304 306 307 305 306 308 320 319 320 319 323 323 324 324 321 322 322 320 320 321 321 323 325 326 327 329 327 329 330 330 336
306 306 305 305 304 302 302 303 303 302 302 302 302 301 301 305 303 304 305 304 309 321 323 322 322 321 325 324 325 322 322 323 321 319 319 321 319 322 324 323 325 324 326 326 328 331 333
305 305 305 304 303 303 303 303 302 302 301 301 301 301 302 304 306 303 303 307 316 322 321 321 323 322 324 324 324 326 324 326 325 322 321 320 321 320 321 323 323 324 328 333 334 333 334
305 305 304 304 303 302 303 303 302 301 301 301 301 301 301 302 303 304 305 311 316 318 321 321 319 320 324 324 323 327 326 328 324 321 321 321 319 321 321 323 325 325 327 334 336 334 333
305 305 304 304 302 302 303 303 302 300 301 300 301 302 302 304 306 304 308 311 314 316 319 320 320 320 320 323 324 326 328 328 326 321 321 321 320 320 320 322 325 325 325 327 330 328 329
304 304 304 303 303 302 302 302 302 301 301 301 302 301 302 306 306 305 309 310 312 311 314 316 320 320 321 322 325 325 328 329 327 322 322 323 323 322 323 321 321 325 325 326 327 332 331
304 304 304 303 303 303 302 302 302 302 301 302 301 303 305 306 304 307 309 309 310 311 312 314 317 320 321 322 323 326 325 325 328 322 322 321 323 325 324 323 323 324 325 327 328 330 333
304 303 303 303 303 303 302 302 302 302 302 303 300 303 305 304 312 308 311 310 309 311 312 312 313 314 318 318 319 321 326 326 325 323 323 323 324 324 326 324 325 324 325 327 328 334 331
303 303 303 302 303 303 303 302 302 302 303 304 303 301 302 303 310 309 311 313 312 311 312 312 313 313 314 317 318 317 318 317 319 323 327 323 325 326 326 325 322 326 326 327 329 331 334
303 303 303 302 303 303 303 303 302 302 303 304 303 304 306 308 307 309 311 314 313 313 313 312 312 312 313 315 315 316 317 316 315 320 329 324 327 328 327 328 327 327 326 327 329 331 332
303 303 303 303 303 303 303 303 302 302 303 303 302 303 304 307 309 306 309 312 314 316 315 316 314 313 313 314 315 315 315 316 316 320 322 323 326 326 327 328 328 327 326 326 328 329 331
303 303 303 303 303 303 303 303 302 302 303 303 304 304 305 304 305 308 308 312 314 311 313 316 318 315 317 316 315 316 315 316 318 317 318 324 326 327 326 325 325 326 327 327 327 328 329
302 303 303 303 303 303 303 302 303 302 303 303 301 303 306 303 304 304 306 309 310 308 310 312 311 311 316 318 316 318 319 319 318 321 320 320 329 330 329 327 326 326 326 327 327 328 328
302 302 302 302 303 303 303 302 302 302 303 303 301 303 305 304 303 303 305 304 306 307 309 308 308 310 315 313 315 318 318 321 322 323 321 322 329 328 329 330 331 330 329 327 328 328 329
302 302 302 302 302 302 303 302 302 302 302 302 303 303 305 305 304 303 303 304 304 305 307 308 308 309 311 313 320 324 323 324 323 323 324 321 322 323 328 331 331 330 328 328 328 330 329
301 302 301 302 302 302 302 303 303 302 302 302 302 302 304 305 304 303 306 306 306 306 309 310 309 309 310 315 320 328 324 322 323 321 322 321 325 323 328 329 333 331 332 328 330 333 333
301 302 302 302 302 302 302 302 302 302 302 302 302 302 303 305 303 304 304 304 305 305 306 308 308 309 312 321 325 325 323 323 322 323 325 321 322 326 326 328 331 333 338 331 333 335 338
302 301 301 302 302 302 302 302 302 302 302 302 302 302 303 304 303 303 304 304 304 306 305 306 307 311 315 320 325 325 326 324 325 324 327 326 328 325 327 329 330 340 339 334 341 341 337
301 301 302 302 301 301 301 301 301 302 302 302 301 301 301 302 303 303 303 303 303 303 305 305 306 308 311 319 319 320 323 328 327 327 329 330 327 328 331 328 341 340 344 339 338 343 340
Wind_Speed
21 21 21 22 23 24 25 26 27 27 28 28 28 28 26 26 27 29 28 27 25 23 21 21 17 9 3 2 8 6 9 3 27 20 16 11 8 5 6 2 2 6 3 3 8 14 15
21 21 21 22 23 23 24 25 26 28 29 30 30 29 29 29 29 30 30 28 26 24 22 19 11 2 1 6 4 3 3 13 19 22 15 10 8 6 4 1 1 3 8 13 14 14 13
21 21 22 22 23 24 24 24 25 27 30 32 32 31 30 30 31 31 30 29 28 24 21 15 4 4 3 13 5 4 1 5 17 20 14 11 5 5 2 1 1 4 11 13 12 9 5
20 21 21 22 23 25 25 24 25 27 30 33 34 33 32 31 32 32 29 30 27 16 10 2 8 4 7 5 6 7 10 11 19 12 10 6 4 2 2 2 2 3 3 6 6 7 6
20 20 21 21 23 25 26 26 27 29 31 33 34 34 34 33 33 33 30 26 10 3 2 8 3 1 7 4 5 7 15 10 11 6 6 6 5 1 3 4 5 2 8 9 8 9 8
19 20 20 21 22 25 27 28 28 30 32 33 35 36 36 34 34 33 25 12 1 4 4 1 1 3 6 3 2 7 10 17 5 8 6 4 2 5 4 7 10 13 8 8 9 12 10
19 20 20 21 22 23 26 27 30 31 33 34 36 37 38 35 35 28 22 2 2 3 2 6 0 3 4 5 3 4 10 8 6 5 7 5 7 14 18 14 4 11 13 16 8 7 13
20 20 21 22 23 23 25 27 29 31 33 34 36 37 39 37 34 12 11 5 4 3 9 10 16 14 16 5 3 3 14 10 6 12 8 6 15 15 9 7 8 13 16 14 4 10 14
20 21 23 22 22 24 26 28 30 31 32 33 35 37 41 40 18 12 6 8 8 5 5 8 7 7 8 13 10 8 14 7 10 10 15 12 7 13 11 10 11 9 19 12 8 6 7
21 22 22 22 23 23 25 28 30 31 32 34 35 36 40 42 4 20 2 5 18 4 4 5 5 5 7 11 7 13 21 10 5 15 10 6 7 19 13 14 13 12 10 9 9 7 4
22 22 23 23 24 24 25 25 27 30 32 35 35 36 39 30 15 7 3 14 13 3 5 2 4 2 6 12 9 11 13 7 11 8 6 10 12 17 17 15 15 5 16 13 11 8 5
21 21 22 22 24 26 26 25 27 29 32 35 36 38 40 14 12 12 9 16 0 3 8 2 4 6 7 12 5 7 12 6 5 5 2 4 2 7 9 8 16 16 11 7 5 5 7
21 21 22 23 24 26 25 26 26 29 33 36 38 41 30 9 4 6 13 4 4 6 2 4 5 6 8 11 10 10 16 17 13 10 11 4 10 3 4 10 7 6 9 6 7 7 7
21 21 22 22 23 25 25 25 27 29 33 37 41 39 22 15 13 5 3 3 10 6 8 2 2 5 7 10 12 12 17 20 13 11 7 12 11 14 8 8 11 15 15 10 10 10 9
22 22 22 22 23 23 23 23 26 29 31 36 41 23 10 4 8 9 4 9 7 7 5 4 2 3 5 9 6 15 17 24 20 17 10 11 11 3 8 6 13 8 10 10 9 2 4
22 22 22 23 23 23 23 23 25 27 28 32 29 11 7 14 3 6 5 9 6 4 4 3 11 5 7 6 11 16 14 18 16 19 11 7 5 8 9 7 3 9 14 7 4 13 13
22 22 22 23 22 22 23 22 23 24 26 25 8 5 9 7 5 3 6 7 8 15 3 3 3 5 7 4 7 10 9 11 23 19 19 8 3 4 7 14 19 7 7 1 6 6 14
23 23 22 22 22 22 21 21 20 22 23 16 5 4 1 8 3 1 4 4 3 7 11 12 4 5 4 4 5 8 9 10 15 18 19 17 7 10 9 4 7 19 19 17 9 7 2
23 22 22 23 22 21 20 20 18 18 16 8 5 4 4 2 4 2 5 6 6 6 14 6 9 7 0 3 3 2 1 6 3 16 16 13 11 8 9 6 5 8 6 10 9 2 13
24 22 22 23 22 20 19 18 17 15 12 8 3 3 2 3 2 4 7 6 7 8 16 10 6 4 4 5 1 2 2 2 8 6 5 12 9 16 18 11 8 8 10 12 16 12 11
22 22 21 21 20 19 18 16 15 13 9 4 1 1 2 4 1 9 4 5 9 5 6 4 10 16 8 7 8 7 4 3 1 1 3 5 8 11 17 17 17 15 13 18 17 18 12
22 22 22 20 20 18 18 16 12 10 5 2 2 2 1 7 5 8 3 1 6 7 5 3 3 12 6 10 11 6 7 4 6 2 3 1 4 10 14 20 17 20 22 18 18 16 16
23 22 20 19 19 18 16 14 11 8 4 3 2 3 2 3 4 5 2 4 6 13 6 5 10 13 6 2 9 9 8 8 5 1 1 2 3 5 10 10 15 13 24 23 21 15 15
22 21 19 18 18 17 16 13 10 7 6 7 3 1 3 5 5 6 9 15 14 11 12 15 18 8 3 16 15 9 9 12 15 13 10 3 1 2 3 8 10 14 17 21 22 20 18
21 20 19 19 18 17 15 13 11 9 7 10 8 5 2 4 5 8 12 11 15 12 16 15 15 14 12 10 3 5 6 7 16 18 16 14 7 3 4 10 8 13 6 11 14 18 21
23 22 22 21 19 17 16 13 12 12 8 9 11 10 4 3 6 8 4 7 8 9 9 5 9 12 5 4 4 9 12 12 13 8 11 17 14 10 4 10 20 8 5 4 11 11 13
26 26 25 24 22 20 18 16 15 13 12 10 8 10 6 3 5 13 10 8 5 7 7 10 8 6 2 4 6 9 14 5 16 17 8 9 8 17 14 10 7 3 7 8 10 10 12
27 26 25 24 24 23 20 20 17 16 13 10 7 10 9 4 7 13 16 12 9 7 7 6 9 2 3 4 4 4 5 11 9 13 10 13 13 9 12 13 18 7 8 10 2 1 2
28 28 26 26 21 19 20 19 19 17 15 11 6 7 11 6 6 10 14 21 24 27 13 8 8 6 3 3 3 4 4 3 5 15 5 12 10 12 12 9 2 8 3 1 2 4 2
Wind_Direction
18 15 13 12 10 9 7 5 4 5 3 0 358 355 351 347 345 343 339 337 331 327 321 316 315 315 353 256 253 291 312 237 178 177 177 171 171 184 240 201 171 219 291 156 147 150 135
10 9 6 5 4 3 2 1 359 359 359 359 356 352 350 346 344 340 336 333 327 321 313 305 300 257 160 262 201 49 36 147 185 183 187 174 196 202 247 157 317 46 97 106 131 138 141
3 3 3 2 2 0 358 357 356 357 357 356 355 352 347 343 341 337 334 329 321 316 305 295 222 159 206 248 206 267 221 196 173 179 180 196 164 194 161 145 16 123 107 99 124 138 129
1 359 360 359 359 359 356 355 354 355 356 356 354 352 348 343 341 336 332 327 319 314 301 233 156 143 248 250 228 258 169 133 157 166 187 190 185 127 229 96 81 166 155 142 157 161 141
360 359 358 358 358 359 360 357 354 354 355 355 354 352 348 344 341 335 331 329 337 23 56 124 120 202 260 269 256 213 172 151 162 164 134 133 158 157 153 177 150 206 180 166 163 189 153
353 353 354 353 353 354 356 357 355 354 354 354 353 351 348 343 341 335 332 334 62 89 99 85 265 275 243 148 137 143 160 146 138 144 129 141 133 178 154 194 199 189 182 180 180 186 189
346 347 347 347 347 348 350 351 352 352 352 351 352 351 347 342 340 337 344 359 279 175 207 224 284 275 286 301 269 155 172 147 110 156 169 184 185 195 192 200 248 189 197 191 192 181 188
343 342 342 342 343 344 345 346 347 347 348 348 350 350 347 342 338 0 358 76 60 317 302 246 248 258 261 292 308 149 159 164 158 180 144 161 209 201 181 181 168 190 189 197 172 170 202
345 342 343 340 338 338 340 342 344 345 345 346 348 348 346 342 341 359 34 115 357 343 259 280 217 228 216 182 214 218 182 147 174 178 188 194 186 164 170 170 163 182 191 190 213 147 191
346 348 347 347 345 340 336 337 340 342 343 343 345 345 346 344 11 340 320 349 335 195 285 258 227 244 167 163 220 192 182 166 169 196 174 209 151 167 176 186 181 190 206 175 159 177 229
344 346 343 344 345 345 341 340 337 339 339 339 341 340 342 342 301 297 289 321 336 179 297 149 170 119 159 193 136 200 177 175 179 168 192 187 173 175 181 183 189 218 173 169 186 183 191
339 339 339 339 340 342 344 340 339 339 337 335 337 335 336 333 289 285 306 326 171 198 240 263 158 168 159 210 175 122 173 159 139 145 220 221 173 190 181 171 184 141 122 114 125 189 239
337 338 336 336 337 339 340 341 341 340 337 334 333 331 325 278 244 292 320 296 188 223 341 210 191 172 195 189 197 174 181 182 176 177 198 181 210 178 193 171 163 188 182 215 229 223 259
334 334 334 336 336 336 337 338 339 338 335 334 331 331 322 274 267 293 289 171 218 199 213 1 190 133 194 168 212 175 178 193 201 181 166 193 208 205 193 219 181 195 207 223 228 231 252
328 328 330 331 334 335 335 335 338 339 336 337 332 331 324 338 322 187 204 214 217 194 241 228 263 226 205 198 209 197 195 199 195 195 194 186 223 177 207 176 177 171 213 237 230 77 240
326 325 325 327 329 334 332 335 337 340 338 340 331 321 308 317 232 165 207 235 227 234 320 252 228 223 215 194 193 198 189 199 195 197 203 188 208 199 180 178 146 217 155 175 219 218 235
323 324 325 326 328 329 331 332 337 341 340 342 337 321 5 86 124 207 227 228 238 260 263 300 257 238 235 220 208 198 204 205 203 188 195 158 248 134 167 202 193 168 190 161 192 235 228
324 321 322 323 324 327 330 332 335 343 344 350 350 302 165 348 240 217 235 220 257 251 235 239 268 254 231 212 201 209 219 232 198 169 190 196 206 219 200 118 207 215 210 204 215 185 244
323 320 320 320 319 320 325 331 333 342 347 339 334 284 345 336 275 262 312 287 272 261 242 232 231 232 305 237 236 250 182 23 51 185 187 171 213 211 215 193 186 214 181 196 210 203 211
322 321 321 321 320 317 318 323 329 335 336 341 314 316 327 24 28 12 351 286 270 255 252 251 276 256 225 218 183 194 239 42 4 119 148 182 197 213 225 223 216 200 196 194 205 219 220
322 319 319 317 321 320 316 312 324 329 325 326 316 358 356 346 350 335 299 294 307 302 319 278 235 242 242 240 230 231 247 295 262 134 157 170 210 207 235 233 228 239 219 205 214 229 222
326 323 320 320 318 315 312 308 315 327 297 237 280 279 217 300 296 312 285 342 340 347 306 307 300 337 288 237 243 233 227 222 254 292 306 1 225 201 225 228 226 230 235 229 226 236 240
332 323 318 321 322 319 312 303 307 322 254 230 210 255 271 289 298 304 275 11 325 334 289 316 6 342 295 38 342 303 293 294 281 335 106 308 230 182 234 223 221 244 236 230 231 228 235
327 331 327 322 321 321 316 302 300 308 267 237 219 268 258 272 260 273 290 305 302 310 286 293 309 290 359 328 306 253 251 251 257 243 225 246 218 282 218 148 211 237 230 226 228 230 221
327 324 326 324 321 316 314 311 300 292 266 246 237 211 242 267 267 280 274 281 293 291 286 282 282 266 308 303 255 211 207 229 233 237 216 210 221 253 234 214 260 244 187 186 199 235 226
323 319 315 314 311 311 309 302 294 287 276 242 248 256 250 260 246 259 311 311 295 302 299 287 320 311 269 249 243 216 210 210 201 215 219 199 208 216 187 232 232 224 183 203 183 244 236
320 315 311 305 301 295 293 290 288 285 273 253 243 226 238 241 238 271 265 278 269 286 280 301 338 320 284 228 231 222 222 225 220 211 163 178 191 213 220 243 261 217 146 164 193 240 231
323 319 316 313 302 293 286 281 276 274 267 249 250 237 217 251 260 248 243 253 262 254 261 305 323 187 277 247 257 213 227 224 244 229 177 177 181 195 216 223 233 161 130 190 248 333 298
331 325 319 315 306 302 297 276 278 260 255 239 237 252 243 238 262 263 266 254 251 250 263 251 253 315 294 292 264 296 249 250 248 240 217 219 206 196 205 209 126 182 272 281 235 261 253